| time (UTC) | temp F | wind direction | speed MPH | gust MPH | rain 1hr in | rain 24hr in | rain mn in | humidity % | barometer mb |
| 20260505153308 | 54 | 12 | 0.0 | 2.0 | 0.00 | 0.04 | 0.04 | 67 | 1007.5 |
| 20260505152805 | 54 | 84 | 0.0 | 4.0 | 0.00 | 0.04 | 0.04 | 65 | 1007.4 |
| 20260505152304 | 54 | 39 | 0.0 | 5.0 | 0.00 | 0.04 | 0.04 | 66 | 1007.4 |
| 20260505151756 | 54 | 225 | 2.0 | 3.0 | 0.00 | 0.04 | 0.04 | 67 | 1007.1 |
| 20260505151254 | 54 | 36 | 3.0 | 3.0 | 0.00 | 0.04 | 0.04 | 71 | 1007.2 |
| 20260505150750 | 53 | 251 | 0.0 | 3.0 | 0.00 | 0.04 | 0.04 | 73 | 1007.2 |
| 20260505150247 | 52 | 99 | 0.0 | 3.0 | 0.00 | 0.04 | 0.04 | 77 | 1007.4 |
| 20260505140212 | 46 | 84 | 1.0 | 4.0 | 0.02 | 0.04 | 0.04 | 88 | 1007.4 |
| 20260505130136 | 46 | 105 | 0.0 | 5.0 | 0.07 | 0.02 | 0.02 | 83 | 1007.9 |
| 20260505124625 | 46 | 26 | 0.0 | 3.0 | 0.00 | 0.01 | 0.01 | 79 | 1007.3 |
| 20260505124122 | 46 | 77 | 0.0 | 6.0 | 0.02 | 0.01 | 0.01 | 78 | 1007.5 |
| 20260505123617 | 46 | 29 | 1.0 | 5.0 | 0.05 | 0.01 | 0.01 | 78 | 1007.2 |
| 20260505123114 | 47 | 62 | 3.0 | 4.0 | 0.02 | 0.01 | 0.01 | 78 | 1006.7 |
| 20260505122611 | 47 | 48 | 4.0 | 4.0 | 0.00 | 0.00 | 0.00 | 78 | 1007.0 |
| 20260505122109 | 48 | 8 | 3.0 | 7.0 | 0.02 | 0.00 | 0.00 | 77 | 1006.7 |
| 20260505121605 | 48 | 347 | 3.0 | 3.0 | 0.00 | 0.00 | 0.00 | 77 | 1006.6 |
| 20260505121102 | 49 | 90 | 1.0 | 3.0 | 0.00 | 0.00 | 0.00 | 75 | 1007.1 |
| 20260505120558 | 49 | 270 | 6.0 | 6.0 | 0.00 | 0.00 | 0.00 | 74 | 1006.7 |
| 20260505120054 | 49 | 262 | 2.0 | 7.0 | 0.00 | 0.00 | 0.00 | 73 | 1006.9 |
| 20260505115548 | 49 | 197 | 2.0 | 6.0 | 0.00 | 0.00 | 0.00 | 74 | 1006.8 |
| 20260505115046 | 50 | 355 | 1.0 | 5.0 | 0.00 | 0.00 | 0.00 | 73 | 1006.7 |
| 20260505114543 | 50 | 79 | 2.0 | 5.0 | 0.00 | 0.00 | 0.00 | 74 | 1006.4 |
| 20260505114039 | 50 | 39 | 0.0 | 5.0 | 0.00 | 0.00 | 0.00 | 73 | 1006.3 |
| 20260505113536 | 50 | 340 | 0.0 | 6.0 | 0.00 | 0.00 | 0.00 | 74 | 1006.2 |
| 20260505113032 | 50 | 356 | 0.0 | 3.0 | 0.00 | 0.00 | 0.00 | 76 | 1006.0 |
| 20260505112528 | 50 | 352 | 2.0 | 5.0 | 0.00 | 0.00 | 0.00 | 75 | 1005.3 |
| 20260505112026 | 50 | 113 | 0.0 | 5.0 | 0.00 | 0.00 | 0.00 | 75 | 1005.5 |
| 20260505111520 | 50 | 282 | 0.0 | 3.0 | 0.00 | 0.00 | 0.00 | 76 | 1005.3 |
| 20260505111017 | 50 | 206 | 0.0 | 3.0 | 0.00 | 0.00 | 0.00 | 75 | 1005.2 |
| 20260505110514 | 50 | 328 | 2.0 | 4.0 | 0.00 | 0.00 | 0.00 | 76 | 1005.3 |
| 20260505101945 | 51 | 74 | 1.0 | 3.0 | 0.00 | 0.00 | 0.00 | 74 | 1004.9 |
| 20260505101438 | 51 | 237 | 0.0 | 4.0 | 0.00 | 0.00 | 0.00 | 75 | 1005.1 |
| 20260505100934 | 51 | 114 | 0.0 | 5.0 | 0.00 | 0.00 | 0.00 | 76 | 1004.9 |
| 20260505100431 | 51 | 96 | 0.0 | 3.0 | 0.00 | 0.00 | 0.00 | 75 | 1004.8 |
| 20260505095927 | 51 | 270 | 1.0 | 2.0 | 0.00 | 0.00 | 0.00 | 75 | 1005.1 |
| 20260505095424 | 51 | 60 | 0.0 | 2.0 | 0.00 | 0.00 | 0.00 | 74 | 1004.9 |
| 20260505094920 | 51 | 0 | 0.0 | 3.0 | 0.00 | 0.00 | 0.00 | 73 | 1004.4 |
| 20260505094417 | 51 | 246 | 2.0 | 3.0 | 0.00 | 0.00 | 0.00 | 73 | 1004.2 |
| 20260505093913 | 51 | 22 | 2.0 | 5.0 | 0.00 | 0.00 | 0.00 | 72 | 1004.0 |
| 20260505093410 | 52 | 20 | 0.0 | 3.0 | 0.00 | 0.00 | 0.00 | 72 | 1004.3 |
| 20260505092908 | 52 | 289 | 3.0 | 4.0 | 0.00 | 0.00 | 0.00 | 71 | 1004.6 |
| 20260505092406 | 52 | 105 | 0.0 | 2.0 | 0.00 | 0.00 | 0.00 | 71 | 1003.9 |
| 20260505091903 | 52 | 254 | 1.0 | 3.0 | 0.00 | 0.00 | 0.00 | 70 | 1004.4 |
| 20260505091400 | 52 | 356 | 2.0 | 3.0 | 0.00 | 0.00 | 0.00 | 70 | 1004.8 |
| 20260505090858 | 52 | 15 | 1.0 | 6.0 | 0.00 | 0.00 | 0.00 | 70 | 1004.6 |
| 20260505090356 | 52 | 345 | 2.0 | 3.0 | 0.00 | 0.00 | 0.00 | 69 | 1004.9 |
| 20260505085853 | 53 | 216 | 3.0 | 3.0 | 0.00 | 0.00 | 0.00 | 69 | 1004.3 |
| 20260505085351 | 52 | 339 | 2.0 | 4.0 | 0.00 | 0.00 | 0.00 | 69 | 1004.1 |
| 20260505084849 | 53 | 265 | 2.0 | 4.0 | 0.00 | 0.00 | 0.00 | 70 | 1004.0 |
| 20260505084347 | 53 | 334 | 2.0 | 3.0 | 0.00 | 0.00 | 0.00 | 69 | 1004.2 |
| 20260505083844 | 53 | 355 | 3.0 | 5.0 | 0.00 | 0.00 | 0.00 | 69 | 1003.8 |
| 20260505083342 | 53 | 26 | 0.0 | 4.0 | 0.00 | 0.00 | 0.00 | 69 | 1003.7 |
| 20260505082838 | 53 | 0 | 2.0 | 3.0 | 0.00 | 0.00 | 0.00 | 70 | 1003.3 |
| 20260505082334 | 53 | 261 | 0.0 | 2.0 | 0.00 | 0.00 | 0.00 | 70 | 1003.0 |
| 20260505081831 | 53 | 243 | 0.0 | 2.0 | 0.00 | 0.00 | 0.00 | 68 | 1003.0 |
| 20260505081327 | 54 | 90 | 0.0 | 3.0 | 0.00 | 0.00 | 0.00 | 65 | 1002.7 |
| 20260505080824 | 54 | 209 | 2.0 | 3.0 | 0.00 | 0.00 | 0.00 | 64 | 1002.9 |
| 20260505080320 | 54 | 342 | 0.0 | 2.0 | 0.00 | 0.00 | 0.00 | 65 | 1002.5 |
| 20260505075815 | 54 | 221 | 2.0 | 3.0 | 0.00 | 0.00 | 0.00 | 64 | 1002.4 |
| 20260505075313 | 54 | 78 | 0.0 | 4.0 | 0.00 | 0.00 | 0.00 | 63 | 1002.2 |
| 20260505074810 | 54 | 0 | 0.0 | 6.0 | 0.00 | 0.00 | 0.00 | 63 | 1002.3 |
| 20260505074307 | 54 | 4 | 2.0 | 3.0 | 0.00 | 0.00 | 0.00 | 64 | 1002.1 |
| 20260505073805 | 54 | 270 | 1.0 | 2.0 | 0.00 | 0.00 | 0.00 | 65 | 1002.0 |
| 20260505073303 | 54 | 90 | 1.0 | 4.0 | 0.00 | 0.00 | 0.00 | 65 | 1001.9 |
| 20260505072759 | 54 | 259 | 0.0 | 3.0 | 0.00 | 0.00 | 0.00 | 66 | 1001.7 |
| 20260505072255 | 54 | 120 | 0.0 | 2.0 | 0.00 | 0.00 | 0.00 | 67 | 1001.9 |
| 20260505071751 | 54 | 0 | 0.0 | 3.0 | 0.00 | 0.00 | 0.00 | 66 | 1001.7 |
| 20260505071248 | 54 | 0 | 0.0 | 2.0 | 0.00 | 0.00 | 0.00 | 67 | 1001.6 |
| 20260505070745 | 54 | 252 | 3.0 | 3.0 | 0.00 | 0.00 | 0.00 | 66 | 1001.6 |
| 20260505070242 | 55 | 81 | 0.0 | 5.0 | 0.00 | 0.00 | 0.00 | 65 | 1001.5 |
| 20260505065737 | 55 | 349 | 2.0 | 3.0 | 0.00 | 0.00 | 0.00 | 65 | 1001.4 |
| 20260505065234 | 55 | 74 | 1.0 | 4.0 | 0.00 | 0.00 | 0.00 | 64 | 1001.3 |
| 20260505064731 | 55 | 60 | 1.0 | 4.0 | 0.00 | 0.00 | 0.00 | 66 | 1001.5 |
| 20260505064229 | 55 | 288 | 2.0 | 5.0 | 0.00 | 0.00 | 0.00 | 66 | 1001.2 |
| 20260505063726 | 55 | 78 | 1.0 | 6.0 | 0.00 | 0.00 | 0.00 | 67 | 1001.2 |
| 20260505063223 | 55 | 286 | 0.0 | 4.0 | 0.00 | 0.00 | 0.00 | 69 | 1001.1 |
| 20260505062719 | 55 | 303 | 0.0 | 3.0 | 0.00 | 0.00 | 0.00 | 67 | 1000.7 |
| 20260505062217 | 54 | 299 | 2.0 | 3.0 | 0.00 | 0.00 | 0.00 | 70 | 1000.8 |
| 20260505061713 | 52 | 345 | 2.0 | 3.0 | 0.00 | 0.00 | 0.00 | 77 | 1000.8 |
| 20260505061212 | 50 | 319 | 2.0 | 3.0 | 0.00 | 0.00 | 0.00 | 90 | 1000.8 |
| 20260505060708 | 50 | 19 | 2.0 | 6.0 | 0.00 | 0.00 | 0.00 | 95 | 1000.6 |
| 20260505060205 | 50 | 298 | 0.0 | 7.0 | 0.00 | 0.00 | 0.00 | 94 | 1000.6 |
| 20260505055700 | 51 | 283 | 1.0 | 3.0 | 0.00 | 0.00 | 0.00 | 94 | 1000.6 |
| 20260505055157 | 50 | 29 | 2.0 | 5.0 | 0.00 | 0.00 | 0.00 | 94 | 1000.6 |
| 20260505054655 | 51 | 297 | 0.0 | 3.0 | 0.00 | 0.00 | 0.00 | 94 | 1000.8 |
| 20260505054153 | 52 | 99 | 0.0 | 5.0 | 0.00 | 0.00 | 0.00 | 94 | 1000.7 |
| 20260505053650 | 52 | 0 | 0.0 | 3.0 | 0.00 | 0.00 | 0.00 | 94 | 1000.6 |
| 20260505053146 | 52 | 6 | 1.0 | 3.0 | 0.00 | 0.00 | 0.00 | 94 | 1000.6 |
| 20260505052644 | 53 | 334 | 1.0 | 4.0 | 0.00 | 0.00 | 0.00 | 95 | 1000.7 |
| 20260505052141 | 53 | 291 | 0.0 | 6.0 | 0.00 | 0.00 | 0.00 | 95 | 1000.9 |
| 20260505051637 | 54 | 20 | 1.0 | 3.0 | 0.00 | 0.00 | 0.00 | 95 | 1000.9 |
| 20260505051136 | 54 | 12 | 2.0 | 5.0 | 0.00 | 0.00 | 0.00 | 95 | 1000.8 |
| 20260505050633 | 55 | 6 | 1.0 | 5.0 | 0.00 | 0.00 | 0.00 | 95 | 1000.7 |
| 20260505050132 | 55 | 0 | 1.0 | 5.0 | 0.00 | 0.00 | 0.00 | 95 | 1000.5 |
| 20260505041601 | 56 | 337 | 0.0 | 3.0 | 0.00 | 1.30 | 1.30 | 95 | 999.7 |
| 20260505041058 | 56 | 254 | 1.0 | 4.0 | 0.00 | 1.30 | 1.30 | 95 | 999.7 |
| 20260505040556 | 56 | 74 | 1.0 | 5.0 | 0.00 | 1.30 | 1.30 | 95 | 999.8 |
| 20260505040053 | 56 | 261 | 0.0 | 4.0 | 0.00 | 1.30 | 1.30 | 95 | 999.7 |
| 20260505035549 | 56 | 202 | 3.0 | 3.0 | 0.00 | 1.30 | 1.30 | 95 | 999.9 |
| 20260505035046 | 56 | 197 | 3.0 | 5.0 | 0.00 | 1.30 | 1.30 | 95 | 999.8 |
| 20260505034542 | 56 | 210 | 3.0 | 4.0 | 0.00 | 1.30 | 1.30 | 95 | 999.8 |
| 20260505034039 | 56 | 212 | 3.0 | 5.0 | 0.00 | 1.30 | 1.30 | 95 | 999.8 |
| 20260505033536 | 56 | 200 | 3.0 | 5.0 | 0.00 | 1.30 | 1.30 | 95 | 999.9 |
| 20260505033034 | 56 | 201 | 3.0 | 5.0 | 0.00 | 1.30 | 1.30 | 95 | 999.9 |
| 20260505032532 | 56 | 217 | 3.0 | 5.0 | 0.00 | 1.30 | 1.30 | 95 | 999.9 |
| 20260505032028 | 55 | 201 | 5.0 | 8.0 | 0.00 | 1.30 | 1.30 | 95 | 999.6 |
| 20260505031525 | 55 | 203 | 3.0 | 7.0 | 0.00 | 1.30 | 1.30 | 95 | 999.8 |
| 20260505031021 | 56 | 205 | 4.0 | 5.0 | 0.00 | 1.30 | 1.30 | 95 | 999.5 |
| 20260505030519 | 56 | 207 | 3.0 | 7.0 | 0.00 | 1.30 | 1.30 | 95 | 999.7 |
| 20260505030015 | 56 | 210 | 3.0 | 10.0 | 0.00 | 1.30 | 1.30 | 95 | 999.8 |
| 20260505025510 | 56 | 222 | 3.0 | 5.0 | 0.00 | 1.30 | 1.30 | 95 | 999.6 |
| 20260505025010 | 56 | 218 | 2.0 | 7.0 | 0.00 | 1.30 | 1.30 | 99 | 999.6 |
| 20260505024506 | 56 | 203 | 4.0 | 6.0 | 0.00 | 1.30 | 1.30 | 99 | 999.4 |
| 20260505024003 | 56 | 207 | 3.0 | 6.0 | 0.00 | 1.30 | 1.30 | 99 | 999.1 |
| 20260505023500 | 56 | 259 | 2.0 | 5.0 | 0.00 | 1.30 | 1.30 | 99 | 999.0 |
| 20260505022958 | 56 | 205 | 3.0 | 5.0 | 0.00 | 1.30 | 1.30 | 99 | 999.0 |
| 20260505022455 | 56 | 208 | 7.0 | 7.0 | 0.00 | 1.30 | 1.30 | 99 | 998.9 |
| 20260505021952 | 57 | 206 | 7.0 | 10.0 | 0.00 | 1.30 | 1.30 | 99 | 999.0 |
| 20260505021448 | 57 | 199 | 7.0 | 7.0 | 0.00 | 1.30 | 1.30 | 99 | 999.1 |
| 20260505020944 | 57 | 204 | 2.0 | 10.0 | 0.00 | 1.30 | 1.30 | 99 | 999.4 |
| 20260505020439 | 57 | 204 | 5.0 | 5.0 | 0.00 | 1.30 | 1.30 | 99 | 999.1 |
| 20260505015937 | 56 | 204 | 3.0 | 5.0 | 0.00 | 1.30 | 1.30 | 99 | 999.2 |
| 20260505015434 | 56 | 190 | 5.0 | 5.0 | 0.00 | 1.30 | 1.30 | 99 | 998.8 |
| 20260505014931 | 56 | 198 | 2.0 | 6.0 | 0.02 | 1.30 | 1.30 | 99 | 998.0 |
| 20260505014428 | 56 | 198 | 3.0 | 3.0 | 0.02 | 1.30 | 1.30 | 99 | 997.8 |
| 20260505013925 | 56 | 196 | 3.0 | 4.0 | 0.00 | 1.29 | 1.29 | 99 | 997.8 |
| 20260505013422 | 56 | 190 | 4.0 | 7.0 | 0.02 | 1.29 | 1.29 | 99 | 997.9 |
| 20260505012920 | 56 | 212 | 0.0 | 6.0 | 0.07 | 1.29 | 1.29 | 99 | 998.5 |
| 20260505012418 | 56 | 207 | 4.0 | 5.0 | 0.07 | 1.29 | 1.29 | 99 | 998.6 |
| 20260505011914 | 56 | 206 | 2.0 | 6.0 | 0.05 | 1.28 | 1.28 | 99 | 999.0 |
| 20260505011410 | 56 | 197 | 5.0 | 8.0 | 0.14 | 1.28 | 1.28 | 99 | 999.3 |
| 20260505010907 | 56 | 112 | 2.0 | 7.0 | 0.40 | 1.27 | 1.27 | 99 | 999.6 |
| 20260505010403 | 55 | 57 | 0.0 | 16.0 | 0.69 | 1.25 | 1.25 | 99 | 999.9 |
| 20260505005859 | 55 | 247 | 3.0 | 14.0 | 1.04 | 1.19 | 1.19 | 99 | 999.9 |
| 20260505005355 | 55 | 63 | 5.0 | 16.0 | 1.28 | 1.12 | 1.12 | 99 | 999.8 |
| 20260505004853 | 55 | 211 | 9.0 | 24.0 | 0.47 | 0.98 | 0.98 | 99 | 1000.2 |
| 20260505004349 | 57 | 225 | 9.0 | 20.0 | 0.02 | 0.91 | 0.91 | 99 | 999.7 |
| 20260505003847 | 57 | 300 | 2.0 | 4.0 | 0.00 | 0.91 | 0.91 | 99 | 998.4 |
| 20260505003344 | 57 | 209 | 2.0 | 2.0 | 0.00 | 0.91 | 0.91 | 99 | 997.9 |
| 20260505002840 | 57 | 180 | 0.0 | 2.0 | 0.00 | 0.91 | 0.91 | 99 | 997.7 |
| 20260505002337 | 57 | 66 | 0.0 | 2.0 | 0.05 | 0.91 | 0.91 | 99 | 998.2 |
| 20260505001835 | 57 | 206 | 0.0 | 5.0 | 0.28 | 0.90 | 0.90 | 99 | 998.2 |
| 20260505001332 | 58 | 209 | 0.0 | 5.0 | 0.38 | 0.90 | 0.90 | 99 | 997.8 |
| 20260505000829 | 58 | 90 | 0.0 | 4.0 | 0.26 | 0.85 | 0.85 | 99 | 998.0 |
| 20260505000327 | 58 | 188 | 0.0 | 2.0 | 0.54 | 0.83 | 0.83 | 99 | 998.1 |
| 20260504235823 | 58 | 83 | 0.0 | 5.0 | 1.37 | 0.79 | 0.79 | 96 | 998.0 |
| 20260504235321 | 58 | 14 | 3.0 | 9.0 | 1.96 | 0.70 | 0.70 | 94 | 998.5 |
| 20260504234817 | 59 | 36 | 5.0 | 9.0 | 2.06 | 0.53 | 0.53 | 90 | 997.7 |
| 20260504234315 | 61 | 48 | 9.0 | 21.0 | 0.85 | 0.32 | 0.32 | 87 | 997.6 |
| 20260504233811 | 64 | 57 | 5.0 | 6.0 | 0.12 | 0.18 | 0.18 | 85 | 997.6 |
| 20260504233307 | 65 | 275 | 0.0 | 2.0 | 0.12 | 0.18 | 0.18 | 85 | 996.8 |
| 20260504232804 | 65 | 180 | 2.0 | 5.0 | 0.05 | 0.17 | 0.17 | 84 | 997.4 |
| 20260504232303 | 65 | 211 | 3.0 | 4.0 | 0.02 | 0.16 | 0.16 | 84 | 996.9 |
| 20260504231758 | 65 | 193 | 0.0 | 5.0 | 0.05 | 0.16 | 0.16 | 85 | 996.8 |
| 20260504231254 | 65 | 206 | 3.0 | 9.0 | 0.05 | 0.15 | 0.15 | 85 | 996.7 |
| 20260504230750 | 64 | 246 | 1.0 | 5.0 | 0.09 | 0.15 | 0.15 | 87 | 996.9 |
| 20260504230248 | 64 | 223 | 4.0 | 5.0 | 0.26 | 0.15 | 0.15 | 86 | 996.8 |
| 20260504225747 | 64 | 203 | 0.0 | 0.0 | 0.38 | 0.13 | 0.13 | 85 | 996.8 |
| 20260504225243 | 65 | 257 | 2.0 | 5.0 | 0.45 | 0.10 | 0.10 | 80 | 996.8 |
| 20260504224740 | 65 | 199 | 6.0 | 9.0 | 0.33 | 0.07 | 0.07 | 81 | 997.1 |
| 20260504224237 | 69 | 201 | 7.0 | 17.0 | 0.02 | 0.02 | 0.02 | 69 | 997.0 |
| 20260504223733 | 71 | 192 | 5.0 | 6.0 | 0.00 | 0.01 | 0.01 | 67 | 997.1 |
| 20260504223229 | 72 | 14 | 0.0 | 5.0 | 0.00 | 0.01 | 0.01 | 63 | 996.8 |
| 20260504222726 | 72 | 202 | 5.0 | 9.0 | 0.00 | 0.01 | 0.01 | 61 | 996.6 |
| 20260504222223 | 71 | 74 | 0.0 | 6.0 | 0.07 | 0.01 | 0.01 | 64 | 996.6 |
| 20260504221721 | 70 | 207 | 6.0 | 22.0 | 0.07 | 0.01 | 0.01 | 67 | 997.2 |
| 20260504221218 | 78 | 193 | 3.0 | 12.0 | 0.00 | 0.00 | 0.00 | 46 | 996.8 |
| 20260504220714 | 78 | 201 | 5.0 | 11.0 | 0.00 | 0.00 | 0.00 | 44 | 996.6 |
| 20260504220212 | 78 | 198 | 5.0 | 8.0 | 0.00 | 0.00 | 0.00 | 44 | 996.6 |
| 20260504215708 | 79 | 200 | 5.0 | 17.0 | 0.00 | 0.00 | 0.00 | 43 | 996.7 |
| 20260504215206 | 80 | 206 | 5.0 | 10.0 | 0.00 | 0.00 | 0.00 | 44 | 996.8 |
| 20260504214701 | 78 | 200 | 5.0 | 19.0 | 0.00 | 0.00 | 0.00 | 45 | 996.8 |
| 20260504214158 | 78 | 201 | 11.0 | 19.0 | 0.00 | 0.00 | 0.00 | 43 | 997.0 |
| 20260504213654 | 78 | 331 | 2.0 | 14.0 | 0.00 | 0.00 | 0.00 | 45 | 996.8 |
| 20260504213151 | 79 | 209 | 6.0 | 17.0 | 0.00 | 0.00 | 0.00 | 44 | 997.0 |
| 20260504212648 | 79 | 203 | 7.0 | 12.0 | 0.00 | 0.00 | 0.00 | 43 | 996.9 |
| 20260504212144 | 81 | 204 | 8.0 | 16.0 | 0.00 | 0.00 | 0.00 | 44 | 997.2 |
| 20260504211642 | 81 | 208 | 7.0 | 22.0 | 0.00 | 0.00 | 0.00 | 43 | 996.9 |
| 20260504211138 | 81 | 199 | 7.0 | 18.0 | 0.00 | 0.00 | 0.00 | 43 | 997.1 |
| 20260504210636 | 81 | 198 | 4.0 | 17.0 | 0.00 | 0.00 | 0.00 | 44 | 996.8 |
| 20260504210132 | 80 | 203 | 7.0 | 14.0 | 0.00 | 0.00 | 0.00 | 45 | 997.4 |
| 20260504205630 | 80 | 200 | 9.0 | 10.0 | 0.00 | 0.00 | 0.00 | 45 | 997.4 |
| 20260504205127 | 81 | 195 | 5.0 | 18.0 | 0.00 | 0.00 | 0.00 | 43 | 997.5 |
| 20260504204626 | 83 | 201 | 5.0 | 14.0 | 0.00 | 0.00 | 0.00 | 42 | 997.7 |
| 20260504204124 | 84 | 197 | 14.0 | 15.0 | 0.00 | 0.00 | 0.00 | 38 | 997.3 |
| 20260504203622 | 83 | 218 | 0.0 | 13.0 | 0.00 | 0.00 | 0.00 | 39 | 997.6 |
| 20260504203119 | 84 | 196 | 9.0 | 12.0 | 0.00 | 0.00 | 0.00 | 39 | 997.5 |
| 20260504202614 | 84 | 208 | 4.0 | 12.0 | 0.00 | 0.00 | 0.00 | 39 | 997.9 |
| 20260504202111 | 84 | 213 | 2.0 | 11.0 | 0.00 | 0.00 | 0.00 | 38 | 997.6 |
| 20260504201608 | 83 | 334 | 4.0 | 9.0 | 0.00 | 0.00 | 0.00 | 37 | 997.6 |
| 20260504201106 | 82 | 194 | 3.0 | 11.0 | 0.00 | 0.00 | 0.00 | 36 | 997.8 |
| 20260504200603 | 84 | 206 | 8.0 | 10.0 | 0.00 | 0.00 | 0.00 | 37 | 997.6 |
| 20260504200059 | 83 | 212 | 3.0 | 8.0 | 0.00 | 0.00 | 0.00 | 37 | 997.9 |
| 20260504195555 | 83 | 216 | 4.0 | 9.0 | 0.00 | 0.00 | 0.00 | 37 | 997.8 |
| 20260504195051 | 83 | 219 | 4.0 | 8.0 | 0.00 | 0.00 | 0.00 | 39 | 997.9 |
| 20260504194548 | 83 | 199 | 8.0 | 14.0 | 0.00 | 0.00 | 0.00 | 38 | 998.0 |
| 20260504194044 | 82 | 303 | 3.0 | 13.0 | 0.00 | 0.00 | 0.00 | 39 | 998.3 |
| 20260504193540 | 83 | 192 | 8.0 | 9.0 | 0.00 | 0.00 | 0.00 | 41 | 998.3 |
| 20260504193039 | 82 | 303 | 2.0 | 12.0 | 0.00 | 0.00 | 0.00 | 39 | 998.4 |
| 20260504192537 | 82 | 194 | 7.0 | 11.0 | 0.00 | 0.00 | 0.00 | 38 | 998.3 |
| 20260504192035 | 82 | 193 | 0.0 | 15.0 | 0.00 | 0.00 | 0.00 | 39 | 998.2 |
| 20260504191533 | 81 | 210 | 4.0 | 8.0 | 0.00 | 0.00 | 0.00 | 38 | 998.4 |
| 20260504191028 | 82 | 225 | 0.0 | 9.0 | 0.00 | 0.00 | 0.00 | 36 | 998.4 |
| 20260504190525 | 82 | 220 | 4.0 | 7.0 | 0.00 | 0.00 | 0.00 | 39 | 998.5 |
| 20260504190021 | 82 | 209 | 3.0 | 12.0 | 0.00 | 0.00 | 0.00 | 36 | 998.5 |
| 20260504185518 | 82 | 204 | 4.0 | 13.0 | 0.00 | 0.00 | 0.00 | 37 | 998.3 |
| 20260504185015 | 81 | 197 | 3.0 | 7.0 | 0.00 | 0.00 | 0.00 | 39 | 998.5 |
| 20260504184510 | 81 | 203 | 5.0 | 9.0 | 0.00 | 0.00 | 0.00 | 40 | 998.5 |
| 20260504184006 | 81 | 21 | 2.0 | 12.0 | 0.00 | 0.00 | 0.00 | 41 | 998.4 |
| 20260504183503 | 81 | 255 | 0.0 | 11.0 | 0.00 | 0.00 | 0.00 | 40 | 998.6 |
| 20260504183001 | 80 | 217 | 4.0 | 7.0 | 0.00 | 0.00 | 0.00 | 41 | 998.6 |
| 20260504182458 | 80 | 201 | 8.0 | 15.0 | 0.00 | 0.00 | 0.00 | 39 | 998.4 |
| 20260504181955 | 81 | 200 | 7.0 | 14.0 | 0.00 | 0.00 | 0.00 | 39 | 998.7 |
| 20260504181452 | 80 | 304 | 2.0 | 11.0 | 0.00 | 0.00 | 0.00 | 41 | 998.8 |
| 20260504180950 | 80 | 201 | 7.0 | 9.0 | 0.00 | 0.00 | 0.00 | 42 | 998.8 |
| 20260504180449 | 80 | 189 | 3.0 | 14.0 | 0.00 | 0.00 | 0.00 | 41 | 998.7 |
| 20260504175947 | 79 | 226 | 4.0 | 16.0 | 0.00 | 0.00 | 0.00 | 41 | 998.8 |
| 20260504175444 | 79 | 215 | 5.0 | 11.0 | 0.00 | 0.00 | 0.00 | 41 | 999.0 |
| 20260504174941 | 79 | 257 | 0.0 | 7.0 | 0.00 | 0.00 | 0.00 | 43 | 998.6 |
| 20260504174439 | 79 | 205 | 5.0 | 14.0 | 0.00 | 0.00 | 0.00 | 43 | 998.9 |
| 20260504173936 | 79 | 180 | 1.0 | 9.0 | 0.00 | 0.00 | 0.00 | 43 | 999.1 |
| 20260504173432 | 78 | 244 | 5.0 | 14.0 | 0.00 | 0.00 | 0.00 | 42 | 999.0 |
| 20260504172930 | 78 | 209 | 2.0 | 15.0 | 0.00 | 0.00 | 0.00 | 43 | 999.1 |
| 20260504172426 | 78 | 223 | 0.0 | 13.0 | 0.00 | 0.00 | 0.00 | 47 | 999.2 |
| 20260504171922 | 78 | 199 | 6.0 | 8.0 | 0.00 | 0.00 | 0.00 | 47 | 999.5 |
| 20260504171420 | 78 | 255 | 0.0 | 6.0 | 0.00 | 0.00 | 0.00 | 50 | 999.4 |
| 20260504170917 | 77 | 215 | 4.0 | 12.0 | 0.00 | 0.00 | 0.00 | 47 | 999.4 |
| 20260504170413 | 76 | 230 | 3.0 | 11.0 | 0.00 | 0.00 | 0.00 | 48 | 999.6 |
| 20260504160332 | 74 | 202 | 8.0 | 8.0 | 0.00 | 0.00 | 0.00 | 55 | 1000.3 |